Home   Weather   Mechelen   Past weeks

Flag for Belgium Past Weather in Mechelen, Belgium — Yesterday and Last 2 Weeks

Now
68 °F

Passing clouds.


Feels Like: 68 °F
Forecast: 47 / 55 °F
Wind: 16 mph from Southeast

Location: Brussels National Airport

Current Time: Apr 30, 2017 at 4:57:58 pm

Latest Report: Apr 30, 2017 at 4:20 pm


Visibility: N/A

Pressure: 29.65 "Hg

Humidity: 30%

Dew Point: 36 °F

Location of MechelenLocation

Past Weather in Mechelen — Graph

°F

Mechelen Temperature Yesterday

Maximum temperature yesterday: 55 °F (at 1:50 pm)
Minimum temperature yesterday: 36 °F (at 4:50 am)
Average temperature yesterday: 47 °F

High & Low Weather Summary for the Past Weeks

 TemperatureHumidityPressure
High66 °F (Apr 30, 1:50 pm)94% (Apr 17, 6:50 am)30.66 "Hg (Apr 17, 6:50 am)
Low27 °F (Apr 20, 5:50 am)30% (Apr 20, 6:20 pm)29.68 "Hg (Apr 30, 1:50 pm)
Average45 °F68%30.17 "Hg
* Reported Apr 15 3:20 pm — Apr 30 3:20 pm, Mechelen, Weather by CustomWeather, © 2017

Note: Actual official high and low records may vary slightly from our data, if they occured in-between our weather recording intervals... More about our weather records

Advertising

Mechelen Weather History for the Previous 24 Hours

Scroll right to see more
 ConditionsComfort  
Time TempWeatherWind HumidityBarometerVisibility
3:20 pm
Sun, Apr 30
66 °FPassing clouds.17 mph35%29.68 "HgN/A
2:50 pm66 °FPassing clouds.17 mph32%29.68 "HgN/A
2:20 pm66 °FSunny.17 mph35%29.68 "Hg10 mi
1:50 pm66 °FPassing clouds.17 mph32%29.68 "HgN/A
1:20 pm64 °FPassing clouds.16 mph34%29.71 "HgN/A
12:50 pm63 °FPassing clouds.16 mph37%29.74 "HgN/A
12:20 pm63 °FPassing clouds.15 mph37%29.74 "HgN/A
11:50 am61 °FSunny.15 mph39%29.74 "Hg10 mi
11:20 am57 °FSunny.15 mph44%29.77 "Hg10 mi
10:50 am57 °FPassing clouds.12 mph44%29.77 "HgN/A
10:20 am55 °FSunny.12 mph51%29.80 "Hg10 mi
9:50 am52 °FSunny.13 mph54%29.80 "Hg10 mi
9:20 am50 °FSunny.12 mph54%29.83 "Hg10 mi
8:50 am48 °FSunny.10 mph58%29.83 "Hg10 mi
8:20 am46 °FSunny.12 mph62%29.83 "Hg10 mi
7:50 am43 °FSunny.9 mph66%29.86 "Hg10 mi
7:20 am41 °FSunny.7 mph70%29.86 "Hg10 mi
6:50 am41 °FSunny.7 mph70%29.86 "Hg10 mi
6:20 am39 °FSunny.7 mph75%29.86 "Hg10 mi
5:50 am39 °FClear.6 mph75%29.86 "Hg10 mi
5:20 am39 °FClear.6 mph75%29.89 "Hg10 mi
4:50 am41 °FClear.6 mph70%29.89 "Hg10 mi
4:20 am41 °FClear.9 mph70%29.89 "Hg10 mi
3:50 am41 °FClear.7 mph70%29.92 "Hg10 mi
3:20 am41 °FClear.6 mph70%29.92 "Hg10 mi
2:50 am41 °FClear.5 mph76%29.92 "Hg10 mi
2:20 am43 °FClear.5 mph71%29.92 "Hg10 mi
1:50 am43 °FClear.5 mph71%29.95 "Hg10 mi
1:20 am45 °FClear.6 mph61%29.95 "Hg10 mi
12:50 am45 °FClear.6 mph66%29.95 "Hg10 mi
12:20 am45 °FClear.6 mph66%29.95 "Hg10 mi
11:50 pm
Sat, Apr 29
45 °FClear.6 mph66%29.95 "Hg10 mi
11:20 pm45 °FClear.5 mph66%29.98 "Hg10 mi
10:50 pm45 °FClear.5 mph66%29.98 "Hg10 mi
10:20 pm46 °FClear.6 mph66%29.98 "Hg10 mi
9:20 pm48 °FClear.6 mph58%29.98 "Hg10 mi
8:50 pm48 °FSunny.5 mph62%29.98 "Hg10 mi
8:20 pm50 °FSunny.6 mph58%29.98 "Hg10 mi
7:50 pm54 °FPassing clouds.7 mph47%29.98 "HgN/A
7:20 pm54 °FPassing clouds.8 mph47%30.01 "HgN/A
6:50 pm55 °FSunny.9 mph51%30.01 "Hg10 mi
6:20 pm55 °FPassing clouds.7 mph47%30.01 "HgN/A
5:50 pm55 °FPassing clouds.7 mph47%30.04 "HgN/A
5:20 pm55 °FPassing clouds.6 mph55%30.04 "HgN/A
4:50 pm55 °FPassing clouds.7 mph51%30.04 "HgN/A
4:20 pm55 °FPassing clouds.3 mph51%30.04 "HgN/A
Weather by CustomWeather, © 2017

See weather overviewHow to use our weather pages